Regional Weather Roundup
Issued by NWS

Home | Current Version | Previous Version | Text Only | Print | Product List | Glossary On
Versions: 1 2 3 4 5 6 7 8 9 10 11 12 13 14 15 16 17 18 19 20 21 22 23 24 25 26 27 28 29 30 31 32 33 34 35 36 37 38 39 40 41 42 43 44 45 46 47 48 49 50
000
ASUS44 KFWD 210215
RWRTX
NORTH TEXAS HOURLY WEATHER ROUNDUP
NATIONAL WEATHER SERVICE FORT WORTH TX
900 PM CDT SAT SEP 20 2014

NOTE: "FAIR" INDICATES FEW OR NO CLOUDS BELOW 12,000 FEET WITH NO
SIGNIFICANT WEATHER AND/OR OBSTRUCTIONS TO VISIBILITY.

TXZ118-119-210300-
DALLAS/FORT WORTH METROPLEX

CITY           SKY/WX    TMP DP  RH WIND       PRES   REMARKS
DFW AIRPORT    CLEAR     84  61  45 SE8       29.97R
DALLAS LOVE    CLEAR     84  61  45 SE9       29.97R
FTW MEACHAM    CLEAR     83  61  47 SE6       29.97R
DAL-EXECUTIVE  CLEAR     81  62  52 SE5       29.97R
FTW-ALLIANCE   PTCLDY    80  59  48 SE6       29.96R
FTW-NAS-JRB    CLEAR     88  58  36 SE8       30.01R
FTW-SPINKS     CLEAR     78  60  53 CALM      29.99R
ARLINGTON      CLEAR     81  61  50 SE3       29.97R
GRAND PRAIRIE  CLEAR     83  59  43 E3        29.99R
ADDISON        PTCLDY    84  59  42 SE7       29.98R
LANCASTER      CLEAR     78  61  54 CALM      29.98R
$$

TXZ091>094-102>105-117-120-121-131>134-210300-
NORTH CENTRAL TEXAS

CITY           SKY/WX    TMP DP  RH WIND       PRES   REMARKS
SHRMAN/DENISON CLEAR     78  64  62 E5        30.01R
GAINESVILLE    CLEAR     79  65  61 E3        30.01R
BOWIE          CLEAR     76  67  72 CALM      30.00R
BRIDGEPORT     CLOUDY    80  63  55 S3        29.99R
DECATUR        CLEAR     81  59  48 SE6       29.99R
DENTON         CLEAR     80  60  50 SE7       29.97R
MCKINNEY       CLEAR     80  61  52 SE7       29.98R
GREENVILLE     CLEAR     77  64  65 CALM      29.99R
ROCKWALL       CLEAR     80  63  55 SE3       29.97R
TERRELL        CLEAR     81  62  52 E3        29.98R
WAXAHACHIE     CLEAR     80  59  48 CALM      29.99R
CLEBURNE       CLEAR     81  64  57 E6        30.00R
GRANBURY       CLEAR     81  67  63 CALM      29.99R
$$

TXZ083>090-098>101-113>116-127>130-139>142-154-155-210300-
WESTERN NORTH TEXAS

CITY           SKY/WX    TMP DP  RH WIND       PRES   REMARKS
WICHITA FALLS  CLEAR     79  68  69 SE7       29.98R
WF-KICKAPOO    CLEAR     79  67  67 SE5       29.99R
VERNON         CLEAR     82  67  60 CALM      30.00R
ABILENE        CLOUDY    76  74  93 S3        30.03R
ABILENE-DYESS  CLOUDY    74  65  72 S3        30.02R
BRECKENRIDGE   PTCLDY    81  69  66 S5        29.99R
GRAHAM         PTCLDY    82  65  56 SE5       29.98R
MINERAL WELLS  CLOUDY    81  66  60 SE3       29.97R
STEPHENVILLE   CLEAR     77  67  70 CALM      30.02R
COMANCHE       PTCLDY    78  68  72 SE5       30.00R
BROWNWOOD      CLOUDY    75  72  88 MISG      30.01R
COLEMAN        CLOUDY    76  72  86 NE3       30.03R
BRADY          CLEAR     75  70  83 E3        30.02R
$$

TXZ143>147-156>162-174-175-210300-
CENTRAL TEXAS

CITY           SKY/WX    TMP DP  RH WIND       PRES   REMARKS
WACO           CLEAR     77  66  68 E5        29.97R
WACO-TSTC      CLEAR     79  66  65 E3        29.97R
WACO-MCGREGOR  CLEAR     79  63  57 SE6       29.99R
HILLSBORO      CLEAR     79  63  56 SE6       29.98R
CORSICANA      CLEAR     78  64  61 SE6       29.98R
MEXIA          CLEAR     78  66  68 CALM      29.97R
HEARNE         CLEAR     79  68  68 E5        29.96R
CAMERON        CLEAR     78  69  72 CALM      29.96R
TEMPLE         CLEAR     77  64  65 E6        29.97R
KILLEEN        CLEAR     81  68  65 E8        29.99R
KILLEEN-SKYLRK CLEAR     79  64  61 SE5       29.98R
FORT HOOD      CLEAR     81  68  64 E3        29.98R
GATESVILLE     CLEAR     79  68  69 CALM      30.01R
HAMILTON       CLEAR     78  67  70 SE6       30.01R
LAMPASAS       PTCLDY    77  73  86 CALM      29.99R
$$

TXZ095>097-106>112-122>126-135>138-148>153-164>167-210300-
EAST TEXAS

CITY           SKY/WX    TMP DP  RH WIND       PRES   REMARKS
PARIS          CLEAR     77  64  65 E5        30.00R
SULPHUR SPRNGS CLEAR     79  65  63 E3        30.00R
MOUNT PLEASANT CLEAR     78  67  69 CALM      29.99R
GILMER         CLEAR     79  70  73 SW6       30.00R
MINEOLA        CLEAR     75  70  83 CALM      29.99R
TYLER          CLEAR     78  67  68 S5        29.98R
LONGVIEW       CLEAR     77  67  71 CALM      29.97R
MARSHALL       CLEAR     76  66  71 CALM      29.99R
ATHENS         CLEAR     73  64  73 CALM      29.97R
PALESTINE      CLEAR     74  70  88 CALM      29.98R
JACKSONVILLE   CLEAR     80  67  64 S3        30.01R
HENDERSON      CLEAR     74  69  84 CALM      29.99R
NACOGDOCHES    CLEAR     73  66  78 CALM      29.98R
LUFKIN         CLEAR     77  70  79 CALM      29.97R
$$

SUPPLEMENTAL OBSERVATIONS (CENTRAL)

CITY           SKY/WX    TMP DP  RH WIND       PRES   REMARKS
LAKE TEXOMA      N/A     79  64  61 E2          N/A
CADDO GRASSLND   N/A     73  68  83 S1          N/A
PAT MAYSE LAKE   N/A     79  68  69 NE3         N/A
ATHENS           N/A     79  66  65 CALM        N/A
PALESTINE        N/A     72  66  83 CALM        N/A
LAKE LIMESTONE   N/A     77  68  73 E2          N/A
MCGREGOR         N/A     79  64  61 SE3         N/A
TEMPLE           N/A     79  66  65 E5          N/A
$$

SUPPLEMENTAL OBSERVATIONS (WEST)

CITY           SKY/WX    TMP DP  RH WIND       PRES   REMARKS
MILLERS CREEK    N/A     79  68  69 S1          N/A
POSSUM KINGDOM   N/A     81  64  57 SE7         N/A
LBJ GRASSLAND    N/A    N/A N/A N/A SE5         N/A
GRANBURY         N/A     81  66  61 E2          N/A
COMANCHE         N/A     77  66  69 SE5         N/A
HAMBY            N/A     73  70  88 SE1         N/A
IVIE RESERVOIR   N/A     77  70  78 E6          N/A
COLORADO BEND    N/A     77  68  73 SE5         N/A
$$

SUPPLEMENTAL OBSERVATIONS (EAST)

CITY           SKY/WX    TMP DP  RH WIND       PRES   REMARKS
CLARKSVILLE      N/A     75  68  78 E2          N/A
TEXARKANA        N/A     73  70  88 CALM        N/A
LINDEN           N/A     77  70  78 CALM        N/A
CADDO LAKE       N/A     72  68  88 CALM        N/A
GILMER           N/A     75  66  73 S2          N/A
HENDERSON        N/A     73  66  78 CALM        N/A
LUFKIN           N/A     73  68  83 MISG        N/A
N SABINE NF      N/A     73  66  78 MISG        N/A
$$

SUPPLEMENTAL OBSERVATIONS ARE A COLLECTION OF AUTOMATED INSTRUMENTS
THAT ARE MAINTAINED BY A VARIETY OF FEDERAL AND STATE AGENCIES.
CERTAIN ELEMENTS...SUCH AS HUMIDITY VALUES AND SUSTAINED WIND
SPEEDS...MAY BE APPROXIMATED.



USA.gov is the U.S. government's official web portal to all federal, state and local government web resources and services.